Location: Conflandey
(47.7287°N, 6.0456°E)
Time: 03:02:22
(UTC+00:00)

Cosmos 1408 - Pass Details

Date: 24 October 2021
Orbit: 465 x 490 km, 82.6° (Epoch: 15 November)

Event Time Altitude Azimuth Distance (km) Brightness Sun altitude
Rises 19:03:18 0° 341° (NNW) 2,536 6.6 -26.2°
Reaches altitude 10° 19:05:35 10° 330° (NNW) 1,647 5.7 -26.5°
Maximum altitude 19:08:43 29° 269° (W) 901 4.5 -27.1°
Enters shadow 19:09:21 27° 249° (WSW) 943 4.5 -27.2°
